Regional Weather Roundup
Issued by NWS

Home | Current Version | Previous Version | Graphics & Text | Print | Product List | Glossary On
Versions: 1 2 3 4 5 6 7 8 9 10 11 12 13 14 15 16 17 18 19 20 21 22 23 24 25 26 27 28 29 30 31 32 33 34 35 36 37 38 39 40 41 42 43 44 45 46 47 48 49 50
000
ASUS45 KCYS 101010
RWRWY

WYOMING REGIONAL WEATHER ROUNDUP
NATIONAL WEATHER SERVICE CHEYENNE WY
400 AM MDT THU JUL 10 2014

NOTE:  "FAIR" INDICATES FEW OR NO CLOUDS BELOW 12,000 FEET
WITH NO SIGNIFICANT WEATHER AND/OR OBSTRUCTIONS TO VISIBILITY.

WYZ001-101100-
YELLOWSTONE NATIONAL PARK

CITY           SKY/WX    TMP DP  RH WIND       PRES   REMARKS
LK YELLOWSTONE   N/A     54  48  80 CALM      30.22S
W YELLOWSTONE  NOT AVBL

$$
WYZ002>013-054>058-071-098>099-101100-
NORTHERN WYOMING

CITY           SKY/WX    TMP DP  RH WIND       PRES   REMARKS
JACKSON        MOCLDY    64  52  63 CALM      30.10S
CODY           NOT AVBL
GREYBULL       PTCLDY    72  52  49 NW12      29.86R
WORLAND        PTCLDY    71  50  47 CALM      29.88R
SHERIDAN       MOCLDY    63  53  70 W8        29.87S
BUFFALO        PTCLDY    62  55  77 S5        29.96S
GILLETTE       MOCLDY    67  58  72 E7        29.95R THUNDER
HULETT         FAIR      63  57  82 MISG      29.91
NEWCASTLE      FAIR      64  55  72 E6        29.94  THUNDER

$$
WYZ014>020-022>026-101>103-101100-
CENTRAL WYOMING

CITY           SKY/WX    TMP DP  RH WIND       PRES   REMARKS
BIG PINEY      MOCLDY    60  45  57 S5        30.16R
PINEDALE       PTSUNNY   59  50  72 CALM      30.17S
DUBOIS         FAIR      63  39  42 NW13      30.13S
LANDER         MOCLDY    68  42  38 SE5       29.97S
RIVERTON       PTCLDY    74  45  35 CALM      29.98R
CASPER         PTCLDY    72  43  35 SW14      29.94R
DOUGLAS        CLEAR     61  57  87 SE8       29.93F

$$
WYZ021-027>030-104>119-101100-
SOUTHERN WYOMING

CITY           SKY/WX    TMP DP  RH WIND       PRES   REMARKS
EVANSTON       MOCLDY    63  48  58 W5        30.19S
KEMMERER       CLOUDY    61  48  63 SW6       30.19R
FORT BRIDGER   FAIR      63  49  60 W7        30.20S
ROCK SPRINGS   PTCLDY    67  42  40 SW12      30.14S
DIXON          FAIR      58  43  57 NE3       30.19S
RAWLINS        MOCLDY    68  41  37 SW17      30.12S
SARATOGA       FAIR      59  41  51 S5        30.18S
LARAMIE        CLEAR     57  42  57 SW6       30.16R
CHEYENNE       CLEAR     60  47  61 W9        30.05F
TORRINGTON     CLEAR     58  57  97 NE3       29.91R

$$


USA.gov is the U.S. government's official web portal to all federal, state and local government web resources and services.